Time,TemperatureF,DewpointF,PressureIn,WindDirection,WindDirectionDegrees,WindSpeedMPH,WindSpeedGustMPH,Humidity,HourlyPrecipIn,Conditions,Clouds,dailyrainin,SoftwareType,DateUTC
2013-09-05 00:01:00,76.5,70.3,30.13,NW,315,0.4,0.7,81,0.00,,,0.00,WUHU216HW,2013-09-05 04:01:00,
2013-09-05 00:06:00,76.5,70.3,30.13,NW,315,0.0,0.7,81,0.00,,,0.00,WUHU216HW,2013-09-05 04:06:00,
2013-09-05 00:11:00,76.5,70.3,30.13,NW,315,0.0,0.4,81,0.00,,,0.00,WUHU216HW,2013-09-05 04:11:00,
2013-09-05 00:16:00,76.5,70.3,30.12,NW,315,0.4,0.4,81,0.00,,,0.00,WUHU216HW,2013-09-05 04:16:00,
2013-09-05 00:21:00,76.3,70.1,30.12,NW,315,0.0,0.4,81,0.00,,,0.00,WUHU216HW,2013-09-05 04:21:00,
2013-09-05 00:26:00,76.3,70.5,30.13,NW,315,0.0,0.4,82,0.00,,,0.00,WUHU216HW,2013-09-05 04:26:00,
2013-09-05 00:31:00,76.3,70.5,30.12,SSW,203,0.0,0.0,82,0.00,,,0.00,WUHU216HW,2013-09-05 04:31:00,
2013-09-05 00:36:00,76.1,70.3,30.12,SSW,203,0.2,0.4,82,0.00,,,0.00,WUHU216HW,2013-09-05 04:36:00,
2013-09-05 00:41:00,76.1,70.3,30.12,SSW,203,0.0,0.4,82,0.00,,,0.00,WUHU216HW,2013-09-05 04:41:00,
2013-09-05 00:46:00,76.1,70.3,30.12,SSW,203,0.0,0.4,82,0.00,,,0.00,WUHU216HW,2013-09-05 04:46:00,
2013-09-05 00:51:00,76.3,70.5,30.12,SSW,203,0.0,0.0,82,0.00,,,0.00,WUHU216HW,2013-09-05 04:51:00,
2013-09-05 00:56:00,76.3,70.5,30.12,SSW,203,0.0,0.4,82,0.00,,,0.00,WUHU216HW,2013-09-05 04:56:00,
2013-09-05 01:01:00,76.3,70.5,30.12,SSW,203,0.0,0.4,82,0.00,,,0.00,WUHU216HW,2013-09-05 05:01:00,
2013-09-05 01:06:00,76.1,70.7,30.12,NNW,338,0.2,0.9,83,0.00,,,0.00,WUHU216HW,2013-09-05 05:06:00,
2013-09-05 01:11:00,76.0,70.5,30.12,NNW,338,0.0,0.9,83,0.00,,,0.00,WUHU216HW,2013-09-05 05:11:00,
2013-09-05 01:16:00,76.0,70.5,30.12,NNW,338,0.0,0.4,83,0.00,,,0.00,WUHU216HW,2013-09-05 05:16:00,
2013-09-05 01:21:00,76.0,70.5,30.12,NNW,338,0.0,0.0,83,0.00,,,0.00,WUHU216HW,2013-09-05 05:21:00,
2013-09-05 01:26:00,76.0,70.5,30.12,NNW,338,0.0,0.0,83,0.00,,,0.00,WUHU216HW,2013-09-05 05:26:00,
2013-09-05 01:31:00,75.8,70.3,30.12,NNW,338,0.0,0.0,83,0.00,,,0.00,WUHU216HW,2013-09-05 05:31:00,
2013-09-05 01:36:00,75.6,70.1,30.13,SSE,158,1.8,1.8,83,0.00,,,0.00,WUHU216HW,2013-09-05 05:36:00,
2013-09-05 01:41:00,75.4,70.3,30.12,NNW,338,1.1,1.8,84,0.00,,,0.00,WUHU216HW,2013-09-05 05:41:00,
2013-09-05 01:46:00,75.4,70.3,30.12,SE,135,1.3,3.1,84,0.00,,,0.00,WUHU216HW,2013-09-05 05:46:00,
2013-09-05 01:51:00,75.4,70.3,30.12,SW,225,0.7,3.1,84,0.00,,,0.00,WUHU216HW,2013-09-05 05:51:00,
2013-09-05 01:56:00,75.4,70.3,30.12,SW,225,0.0,1.3,84,0.00,,,0.00,WUHU216HW,2013-09-05 05:56:00,
2013-09-05 02:01:00,75.6,70.5,30.12,NNW,338,0.2,1.8,84,0.00,,,0.00,WUHU216HW,2013-09-05 06:01:00,
2013-09-05 02:06:00,75.4,70.3,30.12,WNW,293,0.0,1.8,84,0.00,,,0.00,WUHU216HW,2013-09-05 06:06:00,
2013-09-05 02:11:00,75.4,69.9,30.11,NW,315,0.2,1.3,83,0.00,,,0.00,WUHU216HW,2013-09-05 06:11:00,
2013-09-05 02:16:00,75.4,69.9,30.11,SW,225,0.0,1.3,83,0.00,,,0.00,WUHU216HW,2013-09-05 06:16:00,
2013-09-05 02:21:00,75.2,69.8,30.11,SW,225,0.0,0.9,83,0.00,,,0.00,WUHU216HW,2013-09-05 06:21:00,
2013-09-05 02:26:00,75.2,69.8,30.11,SW,225,0.0,0.4,83,0.00,,,0.00,WUHU216HW,2013-09-05 06:26:00,
2013-09-05 02:31:00,75.2,69.8,30.10,SW,225,0.0,0.2,83,0.00,,,0.00,WUHU216HW,2013-09-05 06:31:00,
2013-09-05 02:36:00,75.1,69.6,30.10,SW,225,0.2,0.4,83,0.00,,,0.00,WUHU216HW,2013-09-05 06:36:00,
2013-09-05 02:41:00,75.1,69.6,30.10,West,270,0.0,0.4,83,0.00,,,0.00,WUHU216HW,2013-09-05 06:41:00,
2013-09-05 02:46:00,74.9,69.4,30.10,West,270,0.0,0.2,83,0.00,,,0.00,WUHU216HW,2013-09-05 06:46:00,
2013-09-05 02:51:00,74.7,69.2,30.10,West,270,0.0,0.0,83,0.00,,,0.00,WUHU216HW,2013-09-05 06:51:00,
2013-09-05 02:56:00,74.7,69.2,30.10,SSW,203,0.0,0.2,83,0.00,,,0.00,WUHU216HW,2013-09-05 06:56:00,
2013-09-05 03:01:00,74.5,69.0,30.10,SSW,203,0.0,0.2,83,0.00,,,0.00,WUHU216HW,2013-09-05 07:01:00,
2013-09-05 03:06:00,74.5,69.0,30.10,SSW,203,0.0,0.0,83,0.00,,,0.00,WUHU216HW,2013-09-05 07:06:00,
2013-09-05 03:11:00,74.5,69.4,30.10,SSW,203,0.0,0.0,84,0.00,,,0.00,WUHU216HW,2013-09-05 07:11:00,
2013-09-05 03:16:00,74.3,69.2,30.10,SSW,203,0.0,0.0,84,0.00,,,0.00,WUHU216HW,2013-09-05 07:16:00,
2013-09-05 03:21:00,74.2,69.0,30.11,SSW,203,0.0,0.0,84,0.00,,,0.00,WUHU216HW,2013-09-05 07:21:00,
2013-09-05 03:26:00,74.2,69.0,30.10,SSW,203,0.0,0.0,84,0.00,,,0.00,WUHU216HW,2013-09-05 07:26:00,
2013-09-05 03:31:00,74.0,68.9,30.10,SSW,203,0.0,0.0,84,0.00,,,0.00,WUHU216HW,2013-09-05 07:31:00,
2013-09-05 03:36:00,73.8,68.7,30.10,SSW,203,0.0,0.0,84,0.00,,,0.00,WUHU216HW,2013-09-05 07:36:00,
2013-09-05 03:41:00,73.8,69.0,30.10,SSW,203,0.0,0.0,85,0.00,,,0.00,WUHU216HW,2013-09-05 07:41:00,
2013-09-05 03:46:00,73.6,68.9,30.10,SSW,203,0.0,0.0,85,0.00,,,0.00,WUHU216HW,2013-09-05 07:46:00,
2013-09-05 03:51:00,73.4,68.7,30.10,SSW,203,0.0,0.0,85,0.00,,,0.00,WUHU216HW,2013-09-05 07:51:00,
2013-09-05 03:56:00,73.4,68.7,30.10,SSW,203,0.0,0.0,85,0.00,,,0.00,WUHU216HW,2013-09-05 07:56:00,
2013-09-05 04:01:00,73.4,68.7,30.10,SSW,203,0.0,0.0,85,0.00,,,0.00,WUHU216HW,2013-09-05 08:01:00,
2013-09-05 04:06:00,73.4,68.7,30.10,SSW,203,0.0,0.0,85,0.00,,,0.00,WUHU216HW,2013-09-05 08:06:00,
2013-09-05 04:11:00,73.3,68.5,30.10,SSW,203,0.0,0.0,85,0.00,,,0.00,WUHU216HW,2013-09-05 08:11:00,
2013-09-05 04:16:00,73.3,68.5,30.10,SSW,203,0.0,0.0,85,0.00,,,0.00,WUHU216HW,2013-09-05 08:16:00,
2013-09-05 04:21:00,73.1,68.3,30.10,SSW,203,0.0,0.0,85,0.00,,,0.00,WUHU216HW,2013-09-05 08:21:00,
2013-09-05 04:26:00,72.9,68.1,30.10,SSW,203,0.0,0.0,85,0.00,,,0.00,WUHU216HW,2013-09-05 08:26:00,
2013-09-05 04:31:00,72.9,68.1,30.10,SSW,203,0.0,0.0,85,0.00,,,0.00,WUHU216HW,2013-09-05 08:31:00,
2013-09-05 04:36:00,72.9,68.1,30.10,SSW,203,0.0,0.0,85,0.00,,,0.00,WUHU216HW,2013-09-05 08:36:00,
2013-09-05 04:41:00,72.7,68.0,30.10,SSW,203,0.0,0.0,85,0.00,,,0.00,WUHU216HW,2013-09-05 08:41:00,
2013-09-05 04:46:00,72.7,68.0,30.10,SSW,203,0.0,0.0,85,0.00,,,0.00,WUHU216HW,2013-09-05 08:46:00,
2013-09-05 04:51:00,72.5,67.8,30.10,SSW,203,0.0,0.0,85,0.00,,,0.00,WUHU216HW,2013-09-05 08:51:00,
2013-09-05 04:56:00,72.5,67.8,30.10,SSW,203,0.0,0.0,85,0.00,,,0.00,WUHU216HW,2013-09-05 08:56:00,
2013-09-05 05:01:00,72.5,67.8,30.10,SSW,203,0.0,0.0,85,0.00,,,0.00,WUHU216HW,2013-09-05 09:01:00,
2013-09-05 05:06:00,72.4,68.0,30.10,SSW,203,0.0,0.0,86,0.00,,,0.00,WUHU216HW,2013-09-05 09:06:00,
2013-09-05 05:11:00,72.4,68.0,30.10,NNW,338,0.0,0.4,86,0.00,,,0.00,WUHU216HW,2013-09-05 09:11:00,
2013-09-05 05:16:00,72.4,68.0,30.10,NNW,338,0.0,0.4,86,0.00,,,0.00,WUHU216HW,2013-09-05 09:16:00,
2013-09-05 05:21:00,72.4,68.0,30.10,NNW,338,0.0,0.0,86,0.00,,,0.00,WUHU216HW,2013-09-05 09:21:00,
2013-09-05 05:26:00,72.4,68.0,30.10,NNW,338,0.0,0.0,86,0.00,,,0.00,WUHU216HW,2013-09-05 09:26:00,
2013-09-05 05:31:00,72.4,68.0,30.10,NNW,338,0.7,0.7,86,0.00,,,0.00,WUHU216HW,2013-09-05 09:31:00,
2013-09-05 05:36:00,72.2,67.8,30.10,WNW,293,0.4,0.7,86,0.00,,,0.00,WUHU216HW,2013-09-05 09:36:00,
2013-09-05 05:41:00,72.4,68.3,30.10,NW,315,0.0,1.3,87,0.00,,,0.00,WUHU216HW,2013-09-05 09:41:00,
2013-09-05 05:46:00,72.4,68.3,30.10,NW,315,0.0,1.3,87,0.00,,,0.00,WUHU216HW,2013-09-05 09:46:00,
2013-09-05 05:51:00,72.4,68.3,30.10,NW,315,0.0,0.4,87,0.00,,,0.00,WUHU216HW,2013-09-05 09:51:00,
2013-09-05 05:56:00,72.4,68.3,30.10,NW,315,0.0,0.4,87,0.00,,,0.00,WUHU216HW,2013-09-05 09:56:00,
2013-09-05 06:01:00,72.4,68.3,30.10,NW,315,0.0,0.4,87,0.00,,,0.00,WUHU216HW,2013-09-05 10:01:00,
2013-09-05 06:06:00,72.4,68.3,30.11,NW,315,0.0,0.4,87,0.00,,,0.00,WUHU216HW,2013-09-05 10:06:00,
2013-09-05 06:11:00,72.2,68.1,30.10,NW,315,0.0,0.0,87,0.00,,,0.00,WUHU216HW,2013-09-05 10:11:00,
2013-09-05 06:16:00,72.0,68.0,30.10,NW,315,0.0,0.7,87,0.00,,,0.00,WUHU216HW,2013-09-05 10:16:00,
2013-09-05 06:21:00,72.2,68.1,30.11,NW,315,0.4,0.9,87,0.00,,,0.00,WUHU216HW,2013-09-05 10:21:00,
2013-09-05 06:26:00,72.0,68.2,30.11,NW,315,0.7,1.1,88,0.00,,,0.00,WUHU216HW,2013-09-05 10:26:00,
2013-09-05 06:31:00,72.2,68.4,30.11,WNW,293,0.4,1.6,88,0.00,,,0.00,WUHU216HW,2013-09-05 10:31:00,
2013-09-05 06:36:00,72.2,68.4,30.11,WNW,293,0.2,1.6,88,0.00,,,0.00,WUHU216HW,2013-09-05 10:36:00,
2013-09-05 06:41:00,72.2,68.4,30.12,NNW,338,1.1,1.6,88,0.00,,,0.00,WUHU216HW,2013-09-05 10:41:00,
2013-09-05 06:46:00,72.2,68.4,30.12,WNW,293,0.4,1.6,88,0.00,,,0.00,WUHU216HW,2013-09-05 10:46:00,
2013-09-05 06:51:00,72.4,68.6,30.12,NW,315,0.4,1.6,88,0.00,,,0.00,WUHU216HW,2013-09-05 10:51:00,
2013-09-05 06:56:00,72.4,68.6,30.12,NNW,338,0.2,1.6,88,0.00,,,0.00,WUHU216HW,2013-09-05 10:56:00,
2013-09-05 07:01:00,72.4,68.6,30.12,NW,315,0.4,1.1,88,0.00,,,0.00,WUHU216HW,2013-09-05 11:01:00,
2013-09-05 07:06:00,72.4,68.6,30.12,NNW,338,0.2,1.1,88,0.00,,,0.00,WUHU216HW,2013-09-05 11:06:00,
2013-09-05 07:11:00,72.4,68.6,30.12,NNW,338,0.0,0.9,88,0.00,,,0.00,WUHU216HW,2013-09-05 11:11:00,
2013-09-05 07:16:00,72.4,68.6,30.12,NNW,338,0.4,0.4,88,0.00,,,0.00,WUHU216HW,2013-09-05 11:16:00,
2013-09-05 07:21:00,72.4,68.6,30.12,WNW,293,0.0,0.4,88,0.00,,,0.00,WUHU216HW,2013-09-05 11:21:00,
2013-09-05 07:26:00,72.4,68.6,30.13,WNW,293,0.0,0.4,88,0.00,,,0.00,WUHU216HW,2013-09-05 11:26:00,
2013-09-05 07:31:00,72.5,68.8,30.13,WNW,293,0.0,0.2,88,0.00,,,0.00,WUHU216HW,2013-09-05 11:31:00,
2013-09-05 07:36:00,72.5,68.8,30.13,WNW,293,0.0,0.0,88,0.00,,,0.00,WUHU216HW,2013-09-05 11:36:00,
2013-09-05 07:41:00,72.7,68.7,30.13,WNW,293,0.0,0.0,87,0.00,,,0.00,WUHU216HW,2013-09-05 11:41:00,
2013-09-05 07:46:00,72.9,69.1,30.14,NNE,23,0.2,0.7,88,0.00,,,0.00,WUHU216HW,2013-09-05 11:46:00,
2013-09-05 07:51:00,73.1,69.7,30.13,NW,315,0.4,1.1,89,0.00,,,0.00,WUHU216HW,2013-09-05 11:51:00,
2013-09-05 07:56:00,73.3,69.8,30.14,NW,315,0.9,1.3,89,0.00,,,0.00,WUHU216HW,2013-09-05 11:56:00,
2013-09-05 08:01:00,73.8,70.4,30.14,North,0,0.4,1.8,89,0.00,,,0.00,WUHU216HW,2013-09-05 12:01:00,
2013-09-05 08:06:00,74.0,70.2,30.14,ESE,113,0.2,1.8,88,0.00,,,0.00,WUHU216HW,2013-09-05 12:06:00,
2013-09-05 08:11:00,74.5,70.7,30.14,NNW,338,1.8,2.2,88,0.00,,,0.00,WUHU216HW,2013-09-05 12:11:00,
2013-09-05 08:16:00,74.7,70.7,30.14,NNW,338,2.5,2.5,87,0.00,,,0.00,WUHU216HW,2013-09-05 12:16:00,
2013-09-05 08:21:00,74.9,70.5,30.14,North,0,0.7,2.5,86,0.00,,,0.00,WUHU216HW,2013-09-05 12:21:00,
2013-09-05 08:26:00,75.2,70.8,30.14,North,0,1.1,2.9,86,0.00,,,0.00,WUHU216HW,2013-09-05 12:26:00,
2013-09-05 08:31:00,75.6,70.8,30.14,East,90,0.7,2.9,85,0.00,,,0.00,WUHU216HW,2013-09-05 12:31:00,
2013-09-05 08:36:00,76.0,71.2,30.14,NNW,338,0.4,2.9,85,0.00,,,0.00,WUHU216HW,2013-09-05 12:36:00,
2013-09-05 08:41:00,76.1,70.7,30.14,North,0,0.4,2.9,83,0.00,,,0.00,WUHU216HW,2013-09-05 12:41:00,
2013-09-05 08:46:00,76.5,70.6,30.14,NNE,23,2.0,2.9,82,0.00,,,0.00,WUHU216HW,2013-09-05 12:46:00,
2013-09-05 08:51:00,77.0,71.5,30.14,NNE,23,1.6,2.9,83,0.00,,,0.00,WUHU216HW,2013-09-05 12:51:00,
2013-09-05 08:56:00,77.4,71.1,30.14,NE,45,1.8,3.8,81,0.00,,,0.00,WUHU216HW,2013-09-05 12:56:00,
2013-09-05 09:01:00,77.6,71.3,30.15,NE,45,1.8,3.8,81,0.00,,,0.00,WUHU216HW,2013-09-05 13:01:00,
2013-09-05 09:06:00,78.1,71.5,30.15,North,0,1.1,2.2,80,0.00,,,0.00,WUHU216HW,2013-09-05 13:06:00,
2013-09-05 09:11:00,78.5,71.8,30.15,North,0,1.1,3.8,80,0.00,,,0.00,WUHU216HW,2013-09-05 13:11:00,
2013-09-05 09:16:00,78.8,71.8,30.15,East,90,1.1,3.8,79,0.00,,,0.00,WUHU216HW,2013-09-05 13:16:00,
2013-09-05 09:21:00,79.6,72.1,30.15,NNW,338,0.7,2.9,78,0.00,,,0.00,WUHU216HW,2013-09-05 13:21:00,
2013-09-05 09:26:00,79.9,72.1,30.15,East,90,0.9,2.9,77,0.00,,,0.00,WUHU216HW,2013-09-05 13:26:00,
2013-09-05 09:31:00,80.5,72.6,30.15,North,0,1.6,2.7,77,0.00,,,0.00,WUHU216HW,2013-09-05 13:31:00,
2013-09-05 09:36:00,81.0,72.7,30.15,ESE,113,2.2,2.5,76,0.00,,,0.00,WUHU216HW,2013-09-05 13:36:00,
2013-09-05 09:41:00,81.5,72.8,30.15,ENE,68,1.8,3.1,75,0.00,,,0.00,WUHU216HW,2013-09-05 13:41:00,
2013-09-05 09:46:00,82.1,72.5,30.15,NNE,23,1.8,3.1,73,0.00,,,0.00,WUHU216HW,2013-09-05 13:46:00,
2013-09-05 09:51:00,82.4,72.9,30.15,NE,45,0.7,2.5,73,0.00,,,0.00,WUHU216HW,2013-09-05 13:51:00,
2013-09-05 09:56:00,83.2,74.0,30.15,North,0,2.0,3.6,74,0.00,,,0.00,WUHU216HW,2013-09-05 13:56:00,
2013-09-05 10:01:00,83.9,73.9,30.15,ESE,113,1.3,3.6,72,0.00,,,0.00,WUHU216HW,2013-09-05 14:01:00,
2013-09-05 10:06:00,84.2,72.5,30.16,North,0,1.8,2.0,68,0.00,,,0.00,WUHU216HW,2013-09-05 14:06:00,
2013-09-05 10:11:00,84.4,73.6,30.16,SE,135,1.1,2.0,70,0.00,,,0.00,WUHU216HW,2013-09-05 14:11:00,
2013-09-05 10:16:00,84.8,72.6,30.16,East,90,0.4,3.6,67,0.00,,,0.00,WUHU216HW,2013-09-05 14:16:00,
2013-09-05 10:21:00,84.8,72.2,30.16,NNW,338,2.0,3.6,66,0.00,,,0.00,WUHU216HW,2013-09-05 14:21:00,
2013-09-05 10:26:00,84.6,72.0,30.16,East,90,0.9,2.9,66,0.00,,,0.00,WUHU216HW,2013-09-05 14:26:00,
2013-09-05 10:31:00,84.8,71.7,30.16,NNW,338,1.1,4.7,65,0.00,,,0.00,WUHU216HW,2013-09-05 14:31:00,
2013-09-05 10:36:00,85.3,72.7,30.16,WNW,293,0.9,4.7,66,0.00,,,0.00,WUHU216HW,2013-09-05 14:36:00,
2013-09-05 10:41:00,86.0,72.0,30.16,North,0,1.6,3.1,63,0.00,,,0.00,WUHU216HW,2013-09-05 14:41:00,
2013-09-05 10:46:00,86.4,70.9,30.16,NE,45,0.7,3.1,60,0.00,,,0.00,WUHU216HW,2013-09-05 14:46:00,
2013-09-05 10:51:00,86.6,72.0,30.16,North,0,0.4,2.0,62,0.00,,,0.00,WUHU216HW,2013-09-05 14:51:00,
2013-09-05 10:56:00,86.9,71.9,30.16,West,270,1.1,2.7,61,0.00,,,0.00,WUHU216HW,2013-09-05 14:56:00,
2013-09-05 11:01:00,87.1,72.1,30.16,NNW,338,0.7,2.7,61,0.00,,,0.00,WUHU216HW,2013-09-05 15:01:00,
2013-09-05 11:06:00,87.3,70.7,30.17,NNW,338,0.4,3.6,58,0.00,,,0.00,WUHU216HW,2013-09-05 15:06:00,
2013-09-05 11:11:00,87.7,71.6,30.17,SSW,203,0.9,3.6,59,0.00,,,0.00,WUHU216HW,2013-09-05 15:11:00,
2013-09-05 11:16:00,88.0,69.9,30.16,NW,315,1.1,5.1,55,0.00,,,0.00,WUHU216HW,2013-09-05 15:16:00,
2013-09-05 11:21:00,88.2,70.6,30.16,North,0,0.9,5.1,56,0.00,,,0.00,WUHU216HW,2013-09-05 15:21:00,
2013-09-05 11:26:00,88.4,69.6,30.16,NNW,338,1.6,2.7,54,0.00,,,0.00,WUHU216HW,2013-09-05 15:26:00,
2013-09-05 11:31:00,88.9,69.6,30.16,WNW,293,3.1,3.4,53,0.00,,,0.00,WUHU216HW,2013-09-05 15:31:00,
2013-09-05 11:36:00,89.5,70.6,30.16,NW,315,0.9,3.4,54,0.00,,,0.00,WUHU216HW,2013-09-05 15:36:00,
2013-09-05 11:41:00,89.6,70.2,30.16,NNE,23,0.7,3.4,53,0.00,,,0.00,WUHU216HW,2013-09-05 15:41:00,
2013-09-05 11:46:00,90.0,71.1,30.16,NE,45,0.0,3.4,54,0.00,,,0.00,WUHU216HW,2013-09-05 15:46:00,
2013-09-05 11:51:00,90.2,70.1,30.16,North,0,0.9,5.4,52,0.00,,,0.00,WUHU216HW,2013-09-05 15:51:00,
2013-09-05 11:56:00,90.4,70.8,30.16,WNW,293,0.4,5.4,53,0.00,,,0.00,WUHU216HW,2013-09-05 15:56:00,
2013-09-05 12:01:00,91.3,71.1,30.16,WNW,293,0.2,4.0,52,0.00,,,0.00,WUHU216HW,2013-09-05 16:01:00,
2013-09-05 12:06:00,91.8,71.1,30.16,West,270,0.4,4.0,51,0.00,,,0.00,WUHU216HW,2013-09-05 16:06:00,
2013-09-05 12:11:00,92.7,71.9,30.16,NW,315,0.9,3.4,51,0.00,,,0.00,WUHU216HW,2013-09-05 16:11:00,
2013-09-05 12:16:00,93.2,69.2,30.16,North,0,2.5,3.4,46,0.00,,,0.00,WUHU216HW,2013-09-05 16:16:00,
2013-09-05 12:21:00,92.2,69.6,30.16,East,90,1.1,4.9,48,0.00,,,0.00,WUHU216HW,2013-09-05 16:21:00,
2013-09-05 12:26:00,91.8,70.6,30.15,North,0,0.4,4.9,50,0.00,,,0.00,WUHU216HW,2013-09-05 16:26:00,
2013-09-05 12:31:00,92.5,72.3,30.15,NNW,338,0.9,1.6,52,0.00,,,0.00,WUHU216HW,2013-09-05 16:31:00,
2013-09-05 12:36:00,93.2,71.8,30.15,NW,315,1.8,2.0,50,0.00,,,0.00,WUHU216HW,2013-09-05 16:36:00,
2013-09-05 12:41:00,93.2,71.8,30.15,NW,315,1.1,2.0,50,0.00,,,0.00,WUHU216HW,2013-09-05 16:41:00,
2013-09-05 12:46:00,93.4,71.4,30.15,ENE,68,1.1,2.9,49,0.00,,,0.00,WUHU216HW,2013-09-05 16:46:00,
2013-09-05 12:51:00,93.1,71.6,30.15,NW,315,1.1,2.9,50,0.00,,,0.00,WUHU216HW,2013-09-05 16:51:00,
2013-09-05 12:56:00,93.1,71.6,30.15,WNW,293,2.7,2.7,50,0.00,,,0.00,WUHU216HW,2013-09-05 16:56:00,
2013-09-05 13:01:00,92.9,72.1,30.15,NW,315,2.0,2.7,51,0.00,,,0.00,WUHU216HW,2013-09-05 17:01:00,
2013-09-05 13:06:00,92.7,70.7,30.15,ESE,113,0.4,2.5,49,0.00,,,0.00,WUHU216HW,2013-09-05 17:06:00,
2013-09-05 13:11:00,92.5,69.2,30.14,NW,315,0.7,2.5,47,0.00,,,0.00,WUHU216HW,2013-09-05 17:11:00,
2013-09-05 13:16:00,92.5,69.8,30.14,NNW,338,1.1,2.7,48,0.00,,,0.00,WUHU216HW,2013-09-05 17:16:00,
2013-09-05 13:21:00,92.5,69.2,30.14,SE,135,3.8,3.8,47,0.00,,,0.00,WUHU216HW,2013-09-05 17:21:00,
2013-09-05 13:26:00,92.7,68.8,30.14,ESE,113,0.9,3.8,46,0.00,,,0.00,WUHU216HW,2013-09-05 17:26:00,
2013-09-05 13:31:00,92.9,69.0,30.14,NNE,23,1.1,3.6,46,0.00,,,0.00,WUHU216HW,2013-09-05 17:31:00,
2013-09-05 13:36:00,93.4,70.0,30.13,SE,135,0.2,3.6,47,0.00,,,0.00,WUHU216HW,2013-09-05 17:36:00,
2013-09-05 13:41:00,94.0,70.6,30.13,SW,225,3.8,3.8,47,0.00,,,0.00,WUHU216HW,2013-09-05 17:41:00,
2013-09-05 13:46:00,93.8,66.5,30.13,NNW,338,2.2,3.8,41,0.00,,,0.00,WUHU216HW,2013-09-05 17:46:00,
2013-09-05 13:51:00,93.1,66.5,30.13,WNW,293,0.7,4.0,42,0.00,,,0.00,WUHU216HW,2013-09-05 17:51:00,
2013-09-05 13:56:00,93.1,65.8,30.13,North,0,2.9,4.0,41,0.00,,,0.00,WUHU216HW,2013-09-05 17:56:00,
2013-09-05 14:01:00,93.2,66.6,30.13,North,0,1.3,3.6,42,0.00,,,0.00,WUHU216HW,2013-09-05 18:01:00,
2013-09-05 14:06:00,93.2,66.6,30.13,West,270,3.1,3.6,42,0.00,,,0.00,WUHU216HW,2013-09-05 18:06:00,
2013-09-05 14:11:00,93.6,67.6,30.13,WNW,293,1.3,3.4,43,0.00,,,0.00,WUHU216HW,2013-09-05 18:11:00,
2013-09-05 14:16:00,94.1,68.8,30.13,NW,315,1.1,3.1,44,0.00,,,0.00,WUHU216HW,2013-09-05 18:16:00,
2013-09-05 14:21:00,94.7,68.0,30.12,North,0,2.0,2.5,42,0.00,,,0.00,WUHU216HW,2013-09-05 18:21:00,
2013-09-05 14:26:00,94.7,68.0,30.12,SW,225,0.9,2.5,42,0.00,,,0.00,WUHU216HW,2013-09-05 18:26:00,
2013-09-05 14:31:00,94.9,68.8,30.12,ENE,68,0.7,3.4,43,0.00,,,0.00,WUHU216HW,2013-09-05 18:31:00,
2013-09-05 14:36:00,95.0,69.7,30.12,SE,135,1.3,3.4,44,0.00,,,0.00,WUHU216HW,2013-09-05 18:36:00,
2013-09-05 14:41:00,95.0,70.3,30.12,WSW,248,0.4,2.2,45,0.00,,,0.00,WUHU216HW,2013-09-05 18:41:00,
2013-09-05 14:46:00,94.7,69.9,30.12,NW,315,1.6,1.8,45,0.00,,,0.00,WUHU216HW,2013-09-05 18:46:00,
2013-09-05 14:51:00,94.1,69.5,30.12,South,180,0.0,1.8,45,0.00,,,0.00,WUHU216HW,2013-09-05 18:51:00,
2013-09-05 14:56:00,93.6,67.0,30.11,NNE,23,2.2,2.2,42,0.00,,,0.00,WUHU216HW,2013-09-05 18:56:00,
2013-09-05 15:01:00,93.2,68.0,30.11,NW,315,0.7,2.2,44,0.00,,,0.00,WUHU216HW,2013-09-05 19:01:00,
2013-09-05 15:06:00,93.6,68.3,30.11,ESE,113,2.2,2.2,44,0.00,,,0.00,WUHU216HW,2013-09-05 19:06:00,
2013-09-05 15:11:00,94.5,69.8,30.11,South,180,2.2,4.3,45,0.00,,,0.00,WUHU216HW,2013-09-05 19:11:00,
2013-09-05 15:16:00,94.5,67.2,30.10,NNW,338,2.2,4.3,41,0.00,,,0.00,WUHU216HW,2013-09-05 19:16:00,
2013-09-05 15:21:00,94.1,68.1,30.10,East,90,2.0,3.8,43,0.00,,,0.00,WUHU216HW,2013-09-05 19:21:00,
2013-09-05 15:26:00,94.5,67.8,30.10,NW,315,2.0,2.9,42,0.00,,,0.00,WUHU216HW,2013-09-05 19:26:00,
2013-09-05 15:31:00,95.0,68.9,30.10,West,270,0.4,2.5,43,0.00,,,0.00,WUHU216HW,2013-09-05 19:31:00,
2013-09-05 15:36:00,95.8,67.6,30.10,ENE,68,2.5,3.6,40,0.00,,,0.00,WUHU216HW,2013-09-05 19:36:00,
2013-09-05 15:41:00,95.0,68.3,30.10,NNW,338,2.5,3.6,42,0.00,,,0.00,WUHU216HW,2013-09-05 19:41:00,
2013-09-05 15:46:00,94.5,67.8,30.10,NNW,338,1.8,6.7,42,0.00,,,0.00,WUHU216HW,2013-09-05 19:46:00,
2013-09-05 15:51:00,94.0,68.0,30.10,ESE,113,1.6,6.7,43,0.00,,,0.00,WUHU216HW,2013-09-05 19:51:00,
2013-09-05 15:56:00,94.3,67.6,30.10,NE,45,1.8,2.5,42,0.00,,,0.00,WUHU216HW,2013-09-05 19:56:00,
2013-09-05 16:01:00,93.8,67.8,30.09,NE,45,0.4,2.5,43,0.00,,,0.00,WUHU216HW,2013-09-05 20:01:00,
2013-09-05 16:06:00,94.0,66.6,30.10,NW,315,2.7,2.7,41,0.00,,,0.00,WUHU216HW,2013-09-05 20:06:00,
2013-09-05 16:11:00,93.4,66.2,30.10,NNW,338,1.3,3.4,41,0.00,,,0.00,WUHU216HW,2013-09-05 20:11:00,
2013-09-05 16:16:00,93.1,66.5,30.09,NNE,23,0.9,3.4,42,0.00,,,0.00,WUHU216HW,2013-09-05 20:16:00,
2013-09-05 16:21:00,93.1,67.2,30.10,North,0,1.8,2.7,43,0.00,,,0.00,WUHU216HW,2013-09-05 20:21:00,
2013-09-05 16:26:00,93.2,66.6,30.09,North,0,0.9,2.7,42,0.00,,,0.00,WUHU216HW,2013-09-05 20:26:00,
2013-09-05 16:31:00,93.1,66.5,30.09,NW,315,1.8,2.5,42,0.00,,,0.00,WUHU216HW,2013-09-05 20:31:00,
2013-09-05 16:36:00,93.1,67.2,30.09,NNW,338,2.2,2.5,43,0.00,,,0.00,WUHU216HW,2013-09-05 20:36:00,
2013-09-05 16:41:00,93.1,67.2,30.09,NW,315,0.9,2.2,43,0.00,,,0.00,WUHU216HW,2013-09-05 20:41:00,
2013-09-05 16:46:00,92.7,67.4,30.08,NNE,23,0.7,2.2,44,0.00,,,0.00,WUHU216HW,2013-09-05 20:46:00,
2013-09-05 16:51:00,92.2,67.6,30.08,NW,315,0.4,1.6,45,0.00,,,0.00,WUHU216HW,2013-09-05 20:51:00,
2013-09-05 16:56:00,92.5,68.0,30.08,North,0,0.4,1.6,45,0.00,,,0.00,WUHU216HW,2013-09-05 20:56:00,
2013-09-05 17:01:00,92.9,67.6,30.08,WNW,293,2.0,2.2,44,0.00,,,0.00,WUHU216HW,2013-09-05 21:01:00,
2013-09-05 17:06:00,92.7,66.2,30.09,North,0,2.0,4.0,42,0.00,,,0.00,WUHU216HW,2013-09-05 21:06:00,
2013-09-05 17:11:00,92.3,65.8,30.08,NE,45,1.1,4.0,42,0.00,,,0.00,WUHU216HW,2013-09-05 21:11:00,
2013-09-05 17:16:00,91.8,66.0,30.09,North,0,1.8,2.7,43,0.00,,,0.00,WUHU216HW,2013-09-05 21:16:00,
2013-09-05 17:21:00,91.4,65.7,30.09,NW,315,1.3,2.5,43,0.00,,,0.00,WUHU216HW,2013-09-05 21:21:00,
2013-09-05 17:26:00,91.4,66.3,30.08,NE,45,1.8,5.4,44,0.00,,,0.00,WUHU216HW,2013-09-05 21:26:00,
2013-09-05 17:31:00,91.4,66.3,30.09,East,90,2.5,5.4,44,0.00,,,0.00,WUHU216HW,2013-09-05 21:31:00,
2013-09-05 17:36:00,91.8,68.0,30.08,NNW,338,0.0,2.5,46,0.00,,,0.00,WUHU216HW,2013-09-05 21:36:00,
2013-09-05 17:41:00,91.8,68.0,30.08,NNW,338,1.6,1.8,46,0.00,,,0.00,WUHU216HW,2013-09-05 21:41:00,
2013-09-05 17:46:00,91.8,68.0,30.09,NNW,338,1.1,1.8,46,0.00,,,0.00,WUHU216HW,2013-09-05 21:46:00,
2013-09-05 17:51:00,91.6,67.8,30.08,SW,225,0.0,1.8,46,0.00,,,0.00,WUHU216HW,2013-09-05 21:51:00,
2013-09-05 17:56:00,91.4,68.2,30.09,North,0,1.1,1.8,47,0.00,,,0.00,WUHU216HW,2013-09-05 21:56:00,
2013-09-05 18:01:00,91.1,67.3,30.09,WNW,293,2.2,2.2,46,0.00,,,0.00,WUHU216HW,2013-09-05 22:01:00,
2013-09-05 18:06:00,90.7,67.0,30.08,North,0,1.8,2.9,46,0.00,,,0.00,WUHU216HW,2013-09-05 22:06:00,
2013-09-05 18:11:00,90.2,67.2,30.08,North,0,0.4,2.9,47,0.00,,,0.00,WUHU216HW,2013-09-05 22:11:00,
2013-09-05 18:16:00,89.8,67.4,30.08,WNW,293,0.9,2.9,48,0.00,,,0.00,WUHU216HW,2013-09-05 22:16:00,
2013-09-05 18:21:00,89.3,67.0,30.09,WNW,293,1.3,2.5,48,0.00,,,0.00,WUHU216HW,2013-09-05 22:21:00,
2013-09-05 18:26:00,88.9,68.0,30.09,WNW,293,0.0,2.5,50,0.00,,,0.00,WUHU216HW,2013-09-05 22:26:00,
2013-09-05 18:31:00,88.6,68.1,30.09,NW,315,0.9,2.2,51,0.00,,,0.00,WUHU216HW,2013-09-05 22:31:00,
2013-09-05 18:36:00,88.0,67.7,30.09,NNW,338,0.0,1.6,51,0.00,,,0.00,WUHU216HW,2013-09-05 22:36:00,
2013-09-05 18:41:00,87.8,68.0,30.09,WNW,293,0.2,1.6,52,0.00,,,0.00,WUHU216HW,2013-09-05 22:41:00,
2013-09-05 18:46:00,87.5,68.2,30.09,North,0,0.7,0.9,53,0.00,,,0.00,WUHU216HW,2013-09-05 22:46:00,
2013-09-05 18:51:00,87.1,68.0,30.09,ENE,68,0.7,1.3,53,0.00,,,0.00,WUHU216HW,2013-09-05 22:51:00,
2013-09-05 18:56:00,86.9,67.8,30.08,West,270,0.2,1.6,53,0.00,,,0.00,WUHU216HW,2013-09-05 22:56:00,
2013-09-05 19:01:00,86.8,67.6,30.09,NNW,338,1.1,1.6,53,0.00,,,0.00,WUHU216HW,2013-09-05 23:01:00,
2013-09-05 19:06:00,86.4,67.8,30.09,NW,315,0.0,1.8,54,0.00,,,0.00,WUHU216HW,2013-09-05 23:06:00,
2013-09-05 19:11:00,86.2,67.6,30.09,NW,315,0.0,1.8,54,0.00,,,0.00,WUHU216HW,2013-09-05 23:11:00,
2013-09-05 19:16:00,86.0,68.0,30.09,NW,315,0.0,0.0,55,0.00,,,0.00,WUHU216HW,2013-09-05 23:16:00,
2013-09-05 19:21:00,85.9,67.8,30.09,NW,315,0.0,0.0,55,0.00,,,0.00,WUHU216HW,2013-09-05 23:21:00,
2013-09-05 19:26:00,85.3,68.3,30.09,NW,315,0.0,0.0,57,0.00,,,0.00,WUHU216HW,2013-09-05 23:26:00,
2013-09-05 19:31:00,85.0,68.6,30.09,NW,315,0.0,0.0,58,0.00,,,0.00,WUHU216HW,2013-09-05 23:31:00,
2013-09-05 19:36:00,84.6,69.3,30.10,NW,315,0.0,0.0,60,0.00,,,0.00,WUHU216HW,2013-09-05 23:36:00,
2013-09-05 19:41:00,83.9,69.0,30.10,NW,315,0.0,0.0,61,0.00,,,0.00,WUHU216HW,2013-09-05 23:41:00,
2013-09-05 19:46:00,83.5,69.1,30.10,NW,315,0.0,0.0,62,0.00,,,0.00,WUHU216HW,2013-09-05 23:46:00,
2013-09-05 19:51:00,83.2,69.2,30.10,NW,315,0.0,0.0,63,0.00,,,0.00,WUHU216HW,2013-09-05 23:51:00,
2013-09-05 19:56:00,82.8,68.4,30.10,SSW,203,0.0,0.0,62,0.00,,,0.00,WUHU216HW,2013-09-05 23:56:00,
2013-09-05 20:01:00,82.3,67.9,30.10,South,180,0.0,0.0,62,0.00,,,0.00,WUHU216HW,2013-09-06 00:01:00,
2013-09-05 20:06:00,81.7,67.9,30.10,South,180,0.0,0.0,63,0.00,,,0.00,WUHU216HW,2013-09-06 00:06:00,
2013-09-05 20:11:00,81.4,68.0,30.11,South,180,0.0,0.0,64,0.00,,,0.00,WUHU216HW,2013-09-06 00:11:00,
2013-09-05 20:16:00,81.2,67.8,30.11,South,180,0.0,0.0,64,0.00,,,0.00,WUHU216HW,2013-09-06 00:16:00,
2013-09-05 20:21:00,81.0,68.1,30.11,South,180,0.0,0.0,65,0.00,,,0.00,WUHU216HW,2013-09-06 00:21:00,
2013-09-05 20:26:00,80.5,68.0,30.11,South,180,0.0,0.0,66,0.00,,,0.00,WUHU216HW,2013-09-06 00:26:00,
2013-09-05 20:31:00,80.1,67.7,30.11,South,180,0.0,0.0,66,0.00,,,0.00,WUHU216HW,2013-09-06 00:31:00,
2013-09-05 20:36:00,79.9,68.0,30.11,South,180,0.0,0.0,67,0.00,,,0.00,WUHU216HW,2013-09-06 00:36:00,
2013-09-05 20:41:00,79.7,67.8,30.11,South,180,0.0,0.0,67,0.00,,,0.00,WUHU216HW,2013-09-06 00:41:00,
2013-09-05 20:46:00,79.6,67.6,30.12,South,180,0.0,0.0,67,0.00,,,0.00,WUHU216HW,2013-09-06 00:46:00,
2013-09-05 20:51:00,79.4,67.9,30.12,South,180,0.0,0.0,68,0.00,,,0.00,WUHU216HW,2013-09-06 00:51:00,
2013-09-05 20:56:00,79.2,67.7,30.12,South,180,0.0,0.0,68,0.00,,,0.00,WUHU216HW,2013-09-06 00:56:00,
2013-09-05 21:01:00,78.8,67.8,30.12,SSW,203,0.0,0.0,69,0.00,,,0.00,WUHU216HW,2013-09-06 01:01:00,
2013-09-05 21:06:00,78.5,67.5,30.12,SSW,203,0.0,0.0,69,0.00,,,0.00,WUHU216HW,2013-09-06 01:06:00,
2013-09-05 21:11:00,78.3,67.8,30.12,SSW,203,0.0,0.0,70,0.00,,,0.00,WUHU216HW,2013-09-06 01:11:00,
2013-09-05 21:16:00,77.9,67.4,30.12,SW,225,0.0,0.0,70,0.00,,,0.00,WUHU216HW,2013-09-06 01:16:00,
2013-09-05 21:21:00,77.8,67.6,30.12,SW,225,0.0,0.0,71,0.00,,,0.00,WUHU216HW,2013-09-06 01:21:00,
2013-09-05 21:26:00,77.6,67.5,30.12,SW,225,0.0,0.0,71,0.00,,,0.00,WUHU216HW,2013-09-06 01:26:00,
2013-09-05 21:31:00,77.4,67.3,30.12,SW,225,0.0,0.0,71,0.00,,,0.00,WUHU216HW,2013-09-06 01:31:00,
2013-09-05 21:36:00,77.2,67.5,30.12,SW,225,0.0,0.0,72,0.00,,,0.00,WUHU216HW,2013-09-06 01:36:00,
2013-09-05 21:41:00,77.2,67.5,30.12,SW,225,0.0,0.0,72,0.00,,,0.00,WUHU216HW,2013-09-06 01:41:00,
2013-09-05 21:46:00,77.0,67.8,30.12,SW,225,0.0,0.0,73,0.00,,,0.00,WUHU216HW,2013-09-06 01:46:00,
2013-09-05 21:51:00,76.9,68.0,30.13,SW,225,0.0,0.0,74,0.00,,,0.00,WUHU216HW,2013-09-06 01:51:00,
2013-09-05 21:56:00,76.7,67.8,30.13,SW,225,0.0,0.0,74,0.00,,,0.00,WUHU216HW,2013-09-06 01:56:00,
2013-09-05 22:01:00,76.7,68.1,30.13,SW,225,0.0,0.0,75,0.00,,,0.00,WUHU216HW,2013-09-06 02:01:00,
2013-09-05 22:06:00,76.5,68.0,30.13,SW,225,0.0,0.0,75,0.00,,,0.00,WUHU216HW,2013-09-06 02:06:00,
2013-09-05 22:11:00,76.3,68.2,30.13,SW,225,0.0,0.0,76,0.00,,,0.00,WUHU216HW,2013-09-06 02:11:00,
2013-09-05 22:16:00,76.1,68.1,30.13,SW,225,0.0,0.0,76,0.00,,,0.00,WUHU216HW,2013-09-06 02:16:00,
2013-09-05 22:21:00,76.0,68.2,30.13,WSW,248,0.0,0.0,77,0.00,,,0.00,WUHU216HW,2013-09-06 02:21:00,
2013-09-05 22:26:00,75.8,68.0,30.12,WSW,248,0.0,0.0,77,0.00,,,0.00,WUHU216HW,2013-09-06 02:26:00,
2013-09-05 22:31:00,75.6,68.3,30.12,WSW,248,0.0,0.0,78,0.00,,,0.00,WUHU216HW,2013-09-06 02:31:00,
2013-09-05 22:36:00,75.6,68.3,30.12,WSW,248,0.0,0.0,78,0.00,,,0.00,WUHU216HW,2013-09-06 02:36:00,
2013-09-05 22:41:00,75.6,68.3,30.12,WSW,248,0.0,0.0,78,0.00,,,0.00,WUHU216HW,2013-09-06 02:41:00,
2013-09-05 22:46:00,75.6,68.3,30.12,WSW,248,0.0,0.0,78,0.00,,,0.00,WUHU216HW,2013-09-06 02:46:00,
2013-09-05 22:51:00,75.4,68.1,30.12,WSW,248,0.0,0.0,78,0.00,,,0.00,WUHU216HW,2013-09-06 02:51:00,
2013-09-05 22:56:00,75.4,68.1,30.12,WSW,248,0.0,0.0,78,0.00,,,0.00,WUHU216HW,2013-09-06 02:56:00,
2013-09-05 23:01:00,75.2,68.0,30.12,NNW,338,0.4,0.4,78,0.00,,,0.00,WUHU216HW,2013-09-06 03:01:00,
2013-09-05 23:06:00,74.9,68.1,30.12,NNW,338,0.4,0.7,79,0.00,,,0.00,WUHU216HW,2013-09-06 03:06:00,
2013-09-05 23:11:00,74.9,67.6,30.12,NNW,338,0.0,0.7,78,0.00,,,0.00,WUHU216HW,2013-09-06 03:11:00,
2013-09-05 23:16:00,74.9,67.6,30.12,NNW,338,0.0,0.4,78,0.00,,,0.00,WUHU216HW,2013-09-06 03:16:00,
2013-09-05 23:21:00,74.9,67.6,30.12,NNW,338,0.0,0.0,78,0.00,,,0.00,WUHU216HW,2013-09-06 03:21:00,
2013-09-05 23:26:00,74.9,67.6,30.13,NNW,338,0.0,0.0,78,0.00,,,0.00,WUHU216HW,2013-09-06 03:26:00,
2013-09-05 23:31:00,74.9,67.6,30.12,NNW,338,0.0,0.0,78,0.00,,,0.00,WUHU216HW,2013-09-06 03:31:00,
2013-09-05 23:36:00,74.9,67.6,30.13,NNW,338,0.0,0.0,78,0.00,,,0.00,WUHU216HW,2013-09-06 03:36:00,
2013-09-05 23:41:00,74.9,67.6,30.13,NNW,338,0.0,0.0,78,0.00,,,0.00,WUHU216HW,2013-09-06 03:41:00,
2013-09-05 23:46:00,74.7,67.4,30.13,NNW,338,0.0,0.0,78,0.00,,,0.00,WUHU216HW,2013-09-06 03:46:00,
2013-09-05 23:51:00,74.5,67.2,30.13,NNW,338,0.0,0.0,78,0.00,,,0.00,WUHU216HW,2013-09-06 03:51:00,
2013-09-05 23:56:00,74.2,67.3,30.12,NNW,338,0.0,0.0,79,0.00,,,0.00,WUHU216HW,2013-09-06 03:56:00,